Weather Roundup
Issued by NWS Chicago, IL

Home | Current Version | Previous Version | Graphics & Text | Print | Product List | Glossary On
Versions: 1 2 3 4 5 6 7 8 9 10 11 12 13 14 15 16 17 18 19 20 21 22 23 24 25 26 27 28 29 30 31 32 33 34 35 36 37 38 39 40 41 42 43 44 45 46 47 48 49 50
952
NZUS59 KLOT 011013
HRRLOT

CHICAGO AREA WEATHER ROUNDUP
NATIONAL WEATHER SERVICE CHICAGO/ROMEOVILLE IL
500 AM CDT SAT OCT 01 2016

NOTE: "FAIR" INDICATES FEW OR NO CLOUDS BELOW 12,000 FEET WITH NO
SIGNIFICANT WEATHER AND/OR OBSTRUCTIONS TO VISIBILITY.

* THESE STATIONS ARE NOT UNDER NWS QUALITY CONTROL. THEY ALSO MAY NOT
  REPORT WEATHER SUCH AS PRECIPITATION OR FOG.

ILZ005-006-012>014-019>023-011100-
NORTHEAST ILLINOIS

CITY           SKY/WX    TMP DP  RH WIND       PRES   REMARKS
OHARE          CLOUDY    59  56  89 N6        30.02F
MIDWAY         CLOUDY    61  57  87 N5        30.02F
AURORA         CLEAR     57  56  96 N5        30.03F
LANSING*       CLOUDY    56  56 100 NW5       30.01F FOG
JOLIET*        CLEAR     57  56  97 CALM      30.02F
WAUKEGAN       CLOUDY    57  56  96 NW3       30.03F
DUPAGE AIRPORT CLEAR     56  54  93 N3        30.02F
WHEELING       CLOUDY    59  57  93 N3        30.04F
KANKAKEE*      CLOUDY    58  57  97 CALM      30.02S
MORRIS*        CLEAR     57  56  95 CALM      30.02R
LEWIS AIRPORT* PTCLDY    57  57 100 CALM      30.02F
NORTHERLY ISL    N/A     60  56  86 MISG        N/A
$$

WIZ051-052-058>065-066-070>072-011100-
SOUTHEAST WISCONSIN

CITY           SKY/WX    TMP DP  RH WIND       PRES   REMARKS
MILWAUKEE      CLOUDY    61  58  90 NE5       30.06F
KENOSHA*       CLOUDY    59  57  93 CALM      30.05F
RACINE*        MOCLDY    60  58  92 NE7       30.07S
BURLINGTON     CLOUDY    56  56  99 CALM      30.05F
WAUKESHA       CLOUDY    55  55 100 N3        30.07F
WEST BEND      CLOUDY    68  68 100 NE8       30.08F
$$

INZ001>003-010>013-019-020-011100-
NORTHWEST INDIANA

CITY           SKY/WX    TMP DP  RH WIND       PRES   REMARKS
GARY*          MOCLDY    57  57 100 NE3       30.02F
MICHIGAN CITY* NOT AVBL
RENSSELAER*    NOT AVBL
VALPARAISO     CLOUDY    58  57  97 NE3       30.01F
$$

LMZ740>746-011100-
SOUTHERN LAKE MICHIGAN

STATION/POSITION TIME  SKY/WX   TEMP WIND        PRES    VSBY
                                AIR  DIR/SP/G
                 (UTC)          (F)  (DEG/KT/KT) (MB)    (MI)
HARRISON CRIB    0940            63   20/  4/  4   N/A
BURNHAM HARBOR   1000            60  360/  2/  7   N/A
CALUMET HARBOR   0942            61   20/  4/  5 1016.1F
BURNS HARBOR     0940            62   40/  9/ 10 1016.6F
MICHIGAN CITY    0940            61   10/ 14/ 16   N/A
$$

ABBREVIATIONS USED IN REMARKS
   TC - TEMPERATURE IN CELSIUS
  WCI - WIND CHILL INDEX
   HX - HEAT INDEX
  VSB - VISIBILITY
$$




USA.gov is the U.S. government's official web portal to all federal, state and local government web resources and services.